Regional Weather Roundup
Issued by NWS

Home | Current Version | Previous Version | Text Only | Print | Product List | Glossary Off
Versions: 1 2 3 4 5 6 7 8 9 10 11 12 13 14 15 16 17 18 19 20 21 22 23 24 25 26 27 28 29 30 31 32 33 34 35 36 37 38 39 40 41 42 43 44 45 46 47 48 49 50

000
ASUS43 KDTX 221110
RWRMI
MICHIGAN HOURLY REGIONAL WEATHER ROUNDUP
NATIONAL WEATHER SERVICE DETROIT/PONTIAC MI
700 AM EDT WED MAR 22 2017

NOTE: "FAIR" INDICATES FEW OR NO CLOUDS BELOW 12,000 FEET WITH NO
SIGNIFICANT WEATHER AND/OR OBSTRUCTION TO VISIBILITY.

MIZ047>049-052>055-059>063-066>070-074>076-081>083-221200-
SOUTHEAST LOWER MICHIGAN

CITY           SKY/WX    TMP DP  RH WIND       PRES   REMARKS
ADRIAN         CLEAR     20  10  65 NE12      30.46R WCI   8
ALMA           CLEAR     20   9  62 N7        30.51R WCI  11
ANN ARBOR      CLEAR     20   9  62 NW10      30.46R WCI   9
BAD AXE        CLOUDY    21   6  53 N16G26    30.46R WCI   7
CARO           CLEAR     21   9  61 N10       30.47R WCI  10
DETROIT CITY   CLEAR     21   9  59 N9        30.46R WCI  11
DETROIT        CLEAR     23   9  55 N10       30.47R WCI  12
FLINT          CLEAR     19   8  62 N8        30.47R WCI   9
GROSSE ILE     CLEAR     22  10  60 N9        30.45R WCI  12
HILLSDALE      CLEAR     19   9  63 N7        30.44R WCI  10
HOWELL         CLEAR     19   8  62 N5        30.45R WCI  12

CITY           SKY/WX    TMP DP  RH WIND       PRES   REMARKS
JACKSON        CLEAR     19   8  62 N7        30.47R WCI  10
LAMBERTVILLE   CLEAR     23  10  58 N7        30.47R WCI  14
LANSING        CLEAR     18   9  68 N5        30.49R WCI  11
LAPEER         FAIR      20  10  66 N9        30.45R WCI   9
MASON          CLEAR     19  12  75 N5        30.47R WCI  12
MONROE         CLEAR     22  13  68 N8        30.45R WCI  12
MT. CLEMENS    CLEAR     21  11  64 NW10      30.43R WCI  10
PONTIAC        CLEAR     19  14  81 NW10      30.43R WCI   7
PORT HOPE        N/A     22  11  62 N21       30.45R WCI   6
PORT HURON     CLOUDY    21  10  63 NW8       30.44R WCI  12
TRI CITIES     CLEAR     20   9  62 N12       30.50R WCI   8
MIDLAND        FAIR      20   7  57 N3        30.50R
TROY           CLEAR     22   8  55 NW8       30.47R WCI  12
SAGINAW HB     CLEAR     21   9  58 NW10      30.49R WCI  10
$$
MIZ043>046-050>051-056>058-064>065-071>073-077>080-221200-
SOUTHWEST LOWER MICHIGAN

CITY           SKY/WX    TMP DP  RH WIND       PRES   REMARKS
BATTLE CREEK   CLEAR     18  10  71 NE8       30.48R WCI   8
BENTON HARBOR  CLEAR     21   9  59 NE3       30.52R
BIG RAPIDS     MOCLDY    20   8  59 N8        30.49R WCI  11
COLDWATER      CLEAR     20   8  59 NE9       30.47R WCI  10
FREMONT        FAIR      20   7  59 N5        30.51R WCI  13
HOLLAND        CLEAR     21  10  62 N3        30.52R
GRAND RAPIDS   PTCLDY    19   9  65 N6        30.50R WCI  11
IONIA          FAIR      17   9  71 N5        30.49R WCI  10
KALAMAZOO      CLEAR     17   7  64 N7        30.49R WCI   8
LUDINGTON      CLOUDY    23  11  59 NE6       30.53R WCI  15
MARSHALL       CLEAR     19   9  63 CALM      30.47R
MOUNT PLEASANT CLOUDY    22   8  56 N6        30.50R WCI  14
MUSKEGON       CLEAR     20  10  65 N7        30.54R WCI  11
SOUTH HAVEN    CLEAR     18  11  74 CALM      30.52R
$$
MIZ016>042-221200-
NORTHERN LOWER MICHIGAN

CITY           SKY/WX    TMP DP  RH WIND       PRES   REMARKS
ALPENA         PTCLDY    15   5  64 N8        30.51R WCI   4
BEAVER ISLAND  PTCLDY    17   6  63 N8        30.55R WCI   6
BELLAIRE       CLOUDY    19   6  57 N6        30.55R WCI  11
CADILLAC       CLEAR     17   6  60 N7        30.47R WCI   8
CHARLEVOIX     CLOUDY    19   8  64 NE8       30.59R WCI   9
FRANKFORT      CLOUDY    23  10  56 NE9       30.53S WCI  13
GAYLORD        CLEAR     15   0  51 VRB5      30.48R WCI   8
GRAYLING       CLEAR     13   4  68 CALM      30.50R
HARBOR SPRINGS PTCLDY    15   1  55 NE6       30.54R WCI   6
HOUGHTON LAKE  CLEAR     16   4  59 N7        30.49R WCI   6
MANISTEE       CLOUDY    23  10  57 NE9       30.53R WCI  13
OSCODA         CLEAR     18   3  50 NW9       30.49R WCI   7
PELLSTON       CLEAR     13   0  56 N7        30.56R WCI   3
ROGERS CITY    PTCLDY    17   3  55 N8        30.54R WCI   6
TRAVERSE CITY  FLURRIES  22  10  60 NE12G21   30.53R WCI  10
$$
MIZ007>008-015-221200-
EASTERN UPPER MICHIGAN

CITY           SKY/WX    TMP DP  RH WIND       PRES   REMARKS
KINROSS        CLEAR     10  -2  58 NW5       30.54R WCI   2
MACKINAC ISLAN CLEAR     13  -1  52 N12       30.54R WCI  -1
NEWBERRY       CLOUDY    14   6  70 CALM      30.54R
S. S. MARIE    CLEAR     13  -2  51 NW7       30.53R WCI   3
MUNISING         N/A     20   9  62 N12       30.56R WCI   8
$$
MIZ004>006-011>014-085-221200-
CENTRAL UPPER MICHIGAN

CITY           SKY/WX    TMP DP  RH WIND       PRES   REMARKS
MANISTIQUE     CLEAR     10   5  79 CALM      30.56R
ESCANABA       CLEAR     16   9  74 N3        30.57R
MENOMINEE        N/A    N/A N/A N/A MISG        N/A
SAWYER-GWINN   MOCLDY    16   7  67 N5        30.51S WCI   9
$$
MIZ001>003-009>011-084-221200-
WESTERN UPPER MICHIGAN

CITY           SKY/WX    TMP DP  RH WIND       PRES   REMARKS
IRON MOUNTAIN  CLEAR      8   1  73 CALM      30.53R
HOUGHTON       CLEAR      7   1  76 CALM      30.55R
COPPER HARBOR    N/A     20   8  60 NE10      30.57R WCI   9
IRONWOOD       CLEAR     10   8  92 CALM      30.55R
$$

ABBREVIATIONS USED IN REMARKS
   TC - TEMPERATURE IN CELSIUS
  WCI - WIND CHILL INDEX
   HX - HEAT INDEX
  VSB - VISIBILITY





USA.gov is the U.S. government's official web portal to all federal, state and local government web resources and services.